Location: Austin
(30.3000°N, 97.7500°W)
Time: 03:27:48
(UTC-05:00)

Cosmos 192 - Pass Details

Date: 01 October 2024
Orbit: 698 x 708 km, 74.0° (Epoch: 06 October)

Event Time Altitude Azimuth Distance (km) Brightness Sun altitude
Rises 19:53:51 0° 347° (NNW) 3,085 7.8 -9.1°
Reaches altitude 10° 19:56:11 10° 350° (N) 2,165 7.0 -9.6°
Maximum altitude 20:01:03 67° 73° (ENE) 759 4.3 -10.7°
Drops below altitude 10° 20:05:53 10° 156° (SSE) 2,160 6.6 -11.7°
Sets 20:08:13 0° 159° (SSE) 3,076 7.4 -12.2°
